DLH407 KJFK-EDDF

Flight info

Callsign DLH407
Flight time N/A
Altitude 39000
Route GREKI DCT JUDDS DCT MARTN DCT TOPPS N635A RIKAL/M084F390 DCT 53N050W 55N040W 56N030W 56N020W DCT RESNO DCT NETKI/N0485F390 DCT MORAG DCT NUCHU L607 KONAN UL607 SPI T180 NIVNU T847 IMCOM IMCOM1D
Aircraft A359/H-SDE2E3GHIJ3J4J5LM1ORWXY/LB1D1

Departure

Time 2026-05-09 13:13
Airport John F. Kennedy International Airport (KJFK)

Arrival

Time N/A
Airport Frankfurt Main Airport (EDDF)
Time Latitude Longitude Altitude Speed Heading
2026-05-09 12:58 40.64105 -73.79100 27 ft 0 kts 222°
2026-05-09 12:58 40.64101 -73.79104 27 ft 2 kts 222°
2026-05-09 12:58 40.64082 -73.79127 27 ft 3 kts 222°
2026-05-09 12:59 40.64062 -73.79151 27 ft 5 kts 223°
2026-05-09 12:59 40.64051 -73.79165 25 ft 0 kts 223°
2026-05-09 13:03 40.64050 -73.79167 27 ft 2 kts 223°
2026-05-09 13:03 40.64020 -73.79203 27 ft 10 kts 223°
2026-05-09 13:03 40.63957 -73.79282 26 ft 11 kts 224°
2026-05-09 13:03 40.63906 -73.79306 26 ft 8 kts 167°
2026-05-09 13:04 40.63870 -73.79253 26 ft 8 kts 121°
2026-05-09 13:04 40.63836 -73.79180 27 ft 10 kts 121°
2026-05-09 13:04 40.63796 -73.79093 26 ft 12 kts 121°
2026-05-09 13:04 40.63747 -73.78983 27 ft 15 kts 120°
2026-05-09 13:05 40.63689 -73.78856 28 ft 17 kts 121°
2026-05-09 13:05 40.63624 -73.78713 27 ft 19 kts 121°
2026-05-09 13:05 40.63551 -73.78553 29 ft 21 kts 121°
2026-05-09 13:05 40.63471 -73.78377 28 ft 23 kts 121°
2026-05-09 13:06 40.63386 -73.78190 28 ft 24 kts 121°
2026-05-09 13:06 40.63329 -73.78010 27 ft 21 kts 95°
2026-05-09 13:06 40.63372 -73.77830 28 ft 21 kts 51°
2026-05-09 13:06 40.63493 -73.77719 26 ft 22 kts 30°
2026-05-09 13:07 40.63628 -73.77614 26 ft 23 kts 31°
2026-05-09 13:07 40.63772 -73.77501 31 ft 24 kts 31°
2026-05-09 13:07 40.63919 -73.77386 27 ft 25 kts 31°
2026-05-09 13:07 40.64067 -73.77270 27 ft 25 kts 31°
2026-05-09 13:08 40.64218 -73.77151 27 ft 26 kts 31°
2026-05-09 13:08 40.64368 -73.77034 27 ft 20 kts 31°
2026-05-09 13:08 40.64500 -73.76984 31 ft 21 kts
2026-05-09 13:08 40.64627 -73.76896 25 ft 21 kts 31°
2026-05-09 13:09 40.64757 -73.76794 27 ft 22 kts 31°
2026-05-09 13:09 40.64888 -73.76690 28 ft 22 kts 31°
2026-05-09 13:09 40.65024 -73.76583 27 ft 23 kts 31°
2026-05-09 13:09 40.65098 -73.76503 28 ft 11 kts 73°
2026-05-09 13:10 40.65098 -73.76476 28 ft 0 kts 100°
2026-05-09 13:11 40.65093 -73.76459 28 ft 4 kts 112°
2026-05-09 13:12 40.65068 -73.76401 29 ft 10 kts 120°
2026-05-09 13:12 40.65020 -73.76365 29 ft 8 kts 191°
2026-05-09 13:12 40.64973 -73.76396 28 ft 1 kts 210°
2026-05-09 13:12 40.64956 -73.76409 28 ft 17 kts 210°
2026-05-09 13:13 40.64650 -73.76647 31 ft 83 kts 211°
2026-05-09 13:13 40.63983 -73.77170 28 ft 138 kts 211°
2026-05-09 13:13 40.63030 -73.77917 203 ft 170 kts 210°
2026-05-09 13:13 40.62081 -73.78682 1106 ft 150 kts 212°
2026-05-09 13:14 40.61209 -73.79380 1737 ft 150 kts 213°
2026-05-09 13:14 40.60284 -73.80130 1990 ft 162 kts 214°
2026-05-09 13:16 40.53902 -73.75254 4688 ft 293 kts 70°
2026-05-09 13:16 40.54978 -73.72977 5305 ft 296 kts 51°
2026-05-09 13:16 40.56346 -73.70927 5904 ft 300 kts 48°
2026-05-09 13:16 40.57772 -73.68904 6502 ft 303 kts 47°
2026-05-09 13:17 40.59220 -73.66878 7110 ft 305 kts 47°
2026-05-09 13:17 40.60678 -73.64839 7684 ft 308 kts 47°
2026-05-09 13:17 40.62158 -73.62764 8248 ft 312 kts 47°
2026-05-09 13:17 40.63644 -73.60672 8869 ft 315 kts 47°
2026-05-09 13:18 40.65148 -73.58555 9472 ft 318 kts 47°
2026-05-09 13:18 40.66800 -73.56601 10035 ft 321 kts 32°
2026-05-09 13:18 40.68819 -73.55267 10420 ft 330 kts 18°
2026-05-09 13:18 40.71040 -73.54305 10681 ft 343 kts 12°
2026-05-09 13:19 40.73402 -73.53549 10936 ft 355 kts
2026-05-09 13:19 40.75861 -73.52881 11180 ft 367 kts
2026-05-09 13:19 40.78412 -73.52216 11440 ft 379 kts
2026-05-09 13:19 40.81035 -73.51516 11715 ft 391 kts
2026-05-09 13:20 40.83725 -73.50767 12068 ft 398 kts
2026-05-09 13:20 40.86440 -73.49979 12542 ft 400 kts
2026-05-09 13:20 40.89159 -73.49171 13038 ft 402 kts
2026-05-09 13:20 40.91896 -73.48348 13524 ft 404 kts
2026-05-09 13:21 40.94638 -73.47522 13979 ft 406 kts
2026-05-09 13:21 40.97403 -73.46689 14372 ft 408 kts
2026-05-09 13:21 41.00179 -73.45856 14794 ft 410 kts
2026-05-09 13:21 41.02930 -73.45029 15240 ft 411 kts
2026-05-09 13:22 41.05724 -73.44191 15636 ft 414 kts
2026-05-09 13:22 41.08544 -73.43345 16018 ft 417 kts
2026-05-09 13:22 41.11384 -73.42493 16414 ft 419 kts
2026-05-09 13:23 41.22894 -73.39032 18080 ft 429 kts
2026-05-09 13:23 41.25813 -73.38151 18414 ft 432 kts
2026-05-09 13:24 41.28753 -73.37262 18755 ft 434 kts
2026-05-09 13:24 41.31708 -73.36369 19084 ft 436 kts
2026-05-09 13:24 41.34672 -73.35472 19405 ft 439 kts
2026-05-09 13:24 41.37657 -73.34568 19726 ft 441 kts
2026-05-09 13:25 41.40650 -73.33660 20074 ft 442 kts
2026-05-09 13:25 41.43656 -73.32740 20433 ft 444 kts
2026-05-09 13:25 41.49378 -73.29254 21044 ft 467 kts 31°
2026-05-09 13:26 41.51919 -73.26502 21323 ft 473 kts 37°
2026-05-09 13:26 41.54326 -73.23477 21604 ft 478 kts 40°
2026-05-09 13:26 41.56672 -73.20305 21918 ft 481 kts 41°
2026-05-09 13:26 41.59110 -73.17261 22189 ft 479 kts 33°
2026-05-09 13:27 41.61846 -73.14771 22478 ft 472 kts 22°
2026-05-09 13:27 41.64830 -73.13040 22755 ft 463 kts
2026-05-09 13:27 41.67934 -73.12164 23049 ft 452 kts 357°
2026-05-09 13:27 41.71035 -73.12104 23350 ft 442 kts 348°
2026-05-09 13:28 41.74087 -73.12441 23645 ft 440 kts 345°
2026-05-09 13:28 41.77126 -73.12932 23915 ft 439 kts 343°
2026-05-09 13:28 41.80149 -73.13489 24212 ft 439 kts 343°
2026-05-09 13:28 41.83136 -73.14055 24499 ft 440 kts 343°
2026-05-09 13:29 41.86173 -73.14623 24775 ft 441 kts 343°
2026-05-09 13:29 41.89217 -73.15175 25055 ft 443 kts 343°
2026-05-09 13:29 41.92280 -73.15716 25329 ft 444 kts 343°
2026-05-09 13:29 41.95344 -73.16246 25619 ft 445 kts 343°
2026-05-09 13:30 41.98443 -73.16680 25941 ft 452 kts 348°
2026-05-09 13:30 42.01635 -73.16539 26161 ft 468 kts 358°
2026-05-09 13:30 42.04862 -73.15518 26436 ft 486 kts 11°
2026-05-09 13:30 42.07940 -73.13451 26699 ft 505 kts 27°
2026-05-09 13:31 42.10673 -73.10398 26976 ft 518 kts 38°
2026-05-09 13:31 42.13134 -73.06807 27265 ft 524 kts 44°
2026-05-09 13:31 42.15460 -73.03008 27552 ft 528 kts 45°
2026-05-09 13:31 42.17771 -72.99139 27806 ft 531 kts 45°
2026-05-09 13:32 42.20113 -72.95278 28049 ft 534 kts 44°
2026-05-09 13:32 42.24915 -72.87646 28773 ft 533 kts 43°
2026-05-09 13:32 42.27360 -72.83882 29031 ft 535 kts 42°
2026-05-09 13:33 42.29837 -72.80105 29289 ft 538 kts 42°
2026-05-09 13:33 42.32321 -72.76325 29608 ft 540 kts 42°
2026-05-09 13:33 42.34828 -72.72510 29744 ft 545 kts 42°
2026-05-09 13:33 42.37343 -72.68670 29973 ft 547 kts 42°
2026-05-09 13:34 42.39867 -72.64804 30243 ft 548 kts 42°
2026-05-09 13:34 42.42394 -72.60923 30500 ft 550 kts 42°
2026-05-09 13:34 42.44919 -72.57037 30746 ft 550 kts 42°
2026-05-09 13:34 42.47444 -72.53143 30998 ft 550 kts 42°
2026-05-09 13:35 42.49963 -72.49254 31280 ft 550 kts 42°
2026-05-09 13:35 42.52489 -72.45352 31536 ft 550 kts 41°
2026-05-09 13:35 42.55006 -72.41458 31791 ft 549 kts 41°
2026-05-09 13:35 42.57522 -72.37560 32049 ft 548 kts 41°
2026-05-09 13:36 42.60030 -72.33669 32316 ft 547 kts 41°
2026-05-09 13:36 42.62526 -72.29792 32578 ft 545 kts 41°
2026-05-09 13:36 42.64987 -72.25964 32861 ft 544 kts 41°
2026-05-09 13:36 42.67502 -72.22048 33138 ft 542 kts 41°
2026-05-09 13:37 42.69977 -72.18189 33474 ft 540 kts 41°
2026-05-09 13:37 42.72441 -72.14341 33833 ft 538 kts 41°
2026-05-09 13:37 42.74890 -72.10513 34160 ft 536 kts 41°
2026-05-09 13:37 42.77303 -72.06736 34450 ft 535 kts 41°
2026-05-09 13:38 42.79734 -72.02926 34796 ft 533 kts 41°
2026-05-09 13:38 42.82161 -71.99118 35105 ft 531 kts 41°
2026-05-09 13:38 42.84573 -71.95329 35406 ft 529 kts 41°
2026-05-09 13:38 42.86985 -71.91535 35665 ft 529 kts 41°
2026-05-09 13:39 42.89392 -71.87746 35889 ft 530 kts 42°
2026-05-09 13:39 42.91809 -71.83939 36093 ft 531 kts 42°
2026-05-09 13:39 42.94227 -71.80123 36292 ft 531 kts 42°
2026-05-09 13:39 42.96641 -71.76307 36510 ft 532 kts 42°
2026-05-09 13:40 42.99059 -71.72477 36718 ft 532 kts 43°
2026-05-09 13:40 43.01472 -71.68651 36925 ft 532 kts 43°
2026-05-09 13:40 43.03889 -71.64813 37132 ft 532 kts 43°
2026-05-09 13:40 43.06298 -71.60982 37339 ft 532 kts 43°
2026-05-09 13:41 43.08711 -71.57141 37546 ft 531 kts 43°
2026-05-09 13:41 43.11121 -71.53299 37725 ft 532 kts 43°
2026-05-09 13:41 43.13526 -71.49460 37889 ft 532 kts 44°
2026-05-09 13:41 43.15936 -71.45609 38049 ft 532 kts 44°
2026-05-09 13:42 43.18340 -71.41763 38214 ft 532 kts 44°
2026-05-09 13:42 43.20748 -71.37905 38375 ft 532 kts 44°
2026-05-09 13:42 43.23153 -71.34046 38560 ft 532 kts 44°
2026-05-09 13:42 43.25551 -71.30193 38706 ft 532 kts 45°
2026-05-09 13:43 43.27951 -71.26331 38838 ft 531 kts 45°
2026-05-09 13:43 43.30342 -71.22479 38971 ft 531 kts 45°
2026-05-09 13:43 43.35141 -71.14738 39034 ft 535 kts 45°
2026-05-09 13:44 43.39980 -71.06911 39037 ft 540 kts 45°
2026-05-09 13:44 43.44873 -70.98975 39044 ft 546 kts 46°
2026-05-09 13:45 43.49800 -70.90955 39038 ft 550 kts 46°
2026-05-09 13:45 43.54731 -70.82904 39050 ft 549 kts 46°
2026-05-09 13:46 43.59651 -70.74850 39040 ft 549 kts 46°
2026-05-09 13:46 43.64562 -70.66789 39034 ft 549 kts 46°
2026-05-09 13:47 43.68642 -70.60078 39038 ft 549 kts 46°
2026-05-09 13:47 43.73544 -70.51993 39036 ft 548 kts 46°
2026-05-09 13:48 43.79232 -70.42583 39040 ft 548 kts 47°
2026-05-09 13:48 43.83325 -70.35793 39042 ft 548 kts 47°
2026-05-09 13:49 43.88203 -70.27679 39050 ft 547 kts 47°
2026-05-09 13:49 43.93059 -70.19577 39047 ft 546 kts 47°
2026-05-09 13:50 43.97904 -70.11474 39046 ft 546 kts 47°
2026-05-09 13:50 44.02743 -70.03359 39064 ft 545 kts 47°
2026-05-09 13:51 44.07561 -69.95253 39060 ft 544 kts 47°
2026-05-09 13:51 44.12378 -69.87128 39060 ft 544 kts 47°
2026-05-09 13:52 44.17151 -69.79053 39061 ft 544 kts 47°
2026-05-09 13:52 44.21946 -69.70920 39052 ft 543 kts 47°
2026-05-09 13:53 44.26731 -69.62778 39043 ft 543 kts 47°
2026-05-09 13:53 44.31511 -69.54623 39069 ft 543 kts 48°
2026-05-09 13:54 44.36280 -69.46465 39039 ft 542 kts 48°
2026-05-09 13:54 44.41036 -69.38303 39038 ft 541 kts 48°
2026-05-09 13:55 44.45791 -69.30122 39053 ft 541 kts 48°
2026-05-09 13:55 44.50532 -69.21941 39042 ft 540 kts 48°
2026-05-09 13:56 44.55259 -69.13760 39044 ft 540 kts 48°
2026-05-09 13:56 44.59980 -69.05567 39050 ft 540 kts 48°
2026-05-09 13:57 44.64695 -68.97361 39059 ft 540 kts 48°
2026-05-09 13:57 44.69399 -68.89149 39059 ft 539 kts 48°
2026-05-09 13:58 44.74098 -68.80924 39064 ft 540 kts 49°
2026-05-09 13:58 44.78797 -68.72674 39062 ft 540 kts 49°
2026-05-09 13:59 44.83486 -68.64418 39063 ft 540 kts 49°
2026-05-09 13:59 44.88169 -68.56150 39054 ft 540 kts 49°
2026-05-09 14:00 44.91270 -68.50659 39081 ft 540 kts 49°
2026-05-09 14:00 44.97517 -68.39570 39056 ft 539 kts 49°
2026-05-09 14:01 45.02175 -68.31273 39058 ft 539 kts 49°
2026-05-09 14:01 45.06825 -68.22965 39059 ft 539 kts 49°
2026-05-09 14:02 45.11442 -68.14694 39056 ft 538 kts 49°
2026-05-09 14:02 45.16075 -68.06368 39052 ft 538 kts 49°
2026-05-09 14:03 45.20702 -67.98029 39037 ft 538 kts 49°
2026-05-09 14:03 45.25323 -67.89678 39045 ft 538 kts 49°
2026-05-09 14:04 45.29935 -67.81317 39038 ft 538 kts 50°
2026-05-09 14:04 45.34539 -67.72947 39045 ft 537 kts 50°
2026-05-09 14:05 45.39361 -67.64853 39044 ft 535 kts 46°
2026-05-09 14:05 45.44341 -67.56970 39037 ft 535 kts 45°
2026-05-09 14:06 45.49282 -67.49050 39032 ft 535 kts 46°
2026-05-09 14:06 45.54181 -67.41070 39028 ft 535 kts 46°
2026-05-09 14:07 45.59055 -67.33068 39026 ft 534 kts 47°
2026-05-09 14:07 45.63919 -67.25057 39025 ft 534 kts 47°
2026-05-09 14:08 45.68781 -67.17031 39039 ft 534 kts 47°
2026-05-09 14:08 45.73636 -67.08997 39026 ft 534 kts 47°
2026-05-09 14:09 45.78484 -67.00952 39015 ft 534 kts 47°
2026-05-09 14:09 45.83329 -66.92887 39023 ft 534 kts 47°
2026-05-09 14:10 45.90601 -66.80739 39026 ft 535 kts 47°
2026-05-09 14:11 45.99254 -66.66212 39026 ft 536 kts 47°
2026-05-09 14:11 46.08853 -66.50010 39032 ft 535 kts 47°
2026-05-09 14:12 46.18494 -66.33640 39024 ft 535 kts 48°
2026-05-09 14:12 46.28115 -66.17206 39021 ft 535 kts 48°
2026-05-09 14:13 46.37700 -66.00735 39018 ft 535 kts 48°
2026-05-09 14:15 46.75730 -65.34399 39009 ft 533 kts 49°
2026-05-09 14:15 46.85147 -65.17722 38999 ft 531 kts 49°
2026-05-09 14:16 46.94529 -65.01007 39013 ft 531 kts 49°
2026-05-09 14:16 47.03866 -64.84269 39015 ft 530 kts 50°
2026-05-09 14:17 47.13173 -64.67483 39019 ft 530 kts 50°
2026-05-09 14:17 47.22449 -64.50649 39024 ft 530 kts 50°
2026-05-09 14:18 47.31699 -64.33759 39004 ft 530 kts 50°
2026-05-09 14:18 47.40923 -64.16812 39003 ft 530 kts 51°
2026-05-09 14:19 47.50076 -63.99892 39007 ft 531 kts 51°
2026-05-09 14:19 47.59282 -63.82766 39005 ft 531 kts 51°
2026-05-09 14:20 47.68452 -63.65599 39003 ft 531 kts 51°
2026-05-09 14:20 47.77597 -63.48372 39005 ft 531 kts 52°
2026-05-09 14:21 47.91267 -63.22413 39010 ft 531 kts 52°
2026-05-09 14:21 48.00346 -63.05034 39010 ft 531 kts 52°
2026-05-09 14:22 48.09399 -62.87595 39003 ft 531 kts 52°
2026-05-09 14:22 48.18426 -62.70092 39003 ft 531 kts 52°
2026-05-09 14:23 48.27426 -62.52529 38996 ft 531 kts 53°
2026-05-09 14:23 48.36394 -62.34913 38995 ft 531 kts 53°
2026-05-09 14:24 48.45345 -62.17217 38986 ft 531 kts 53°
2026-05-09 14:24 48.54269 -61.99456 38989 ft 531 kts 53°
2026-05-09 14:25 48.63167 -61.81632 38981 ft 531 kts 53°
2026-05-09 14:25 48.72035 -61.63748 38974 ft 531 kts 54°
2026-05-09 14:26 48.80875 -61.45801 38973 ft 531 kts 54°
2026-05-09 14:26 48.89688 -61.27791 38965 ft 531 kts 54°
2026-05-09 14:27 48.98476 -61.09709 38962 ft 532 kts 54°
2026-05-09 14:27 49.07246 -60.91542 38963 ft 532 kts 54°
2026-05-09 14:28 49.16000 -60.73285 38958 ft 532 kts 55°
2026-05-09 14:28 49.24716 -60.54984 38955 ft 532 kts 55°
2026-05-09 14:29 49.33400 -60.36622 38954 ft 532 kts 55°
2026-05-09 14:29 49.42050 -60.18209 38950 ft 532 kts 56°
2026-05-09 14:30 49.50666 -59.99737 38945 ft 532 kts 56°
2026-05-09 14:30 49.59258 -59.81189 38949 ft 531 kts 56°
2026-05-09 14:31 49.67751 -59.62730 38949 ft 531 kts 56°
2026-05-09 14:31 49.76260 -59.44103 38946 ft 530 kts 57°
2026-05-09 14:32 49.84737 -59.25416 38943 ft 530 kts 57°
2026-05-09 14:32 49.93182 -59.06668 38943 ft 530 kts 57°
2026-05-09 14:33 50.01599 -58.87850 38921 ft 531 kts 58°
2026-05-09 14:33 50.10005 -58.68920 38944 ft 532 kts 58°
2026-05-09 14:34 50.18393 -58.49897 38947 ft 533 kts 58°
2026-05-09 14:34 50.26770 -58.30759 38947 ft 533 kts 58°
2026-05-09 14:35 50.33758 -58.14686 38952 ft 533 kts 59°
2026-05-09 14:35 50.43416 -57.92312 38952 ft 533 kts 59°
2026-05-09 14:36 50.50294 -57.76260 38950 ft 533 kts 59°
2026-05-09 14:36 50.58537 -57.56893 38942 ft 533 kts 60°
2026-05-09 14:37 50.71223 -57.26804 38932 ft 533 kts 60°
2026-05-09 14:37 50.87478 -56.87733 38929 ft 531 kts 61°
2026-05-09 14:38 51.03674 -56.48213 38922 ft 530 kts 62°
2026-05-09 14:38 51.19541 -56.08905 38920 ft 531 kts 62°
2026-05-09 14:39 51.35369 -55.69088 38914 ft 531 kts 63°
2026-05-09 14:39 51.51077 -55.28956 38914 ft 532 kts 64°
2026-05-09 14:40 51.66673 -54.88480 38900 ft 533 kts 64°
2026-05-09 14:40 51.81713 -54.47452 38880 ft 526 kts 71°